This is the latest recevied weather packets stored in our database for station/object OK2ARM-6. If no packets are shown the sender has not sent any weather packets the latest 10 day(s).
| Time | Temp. | Humidity | Pressure | Rain* | Wind** | Luminosity | Snow |
|---|---|---|---|---|---|---|---|
| 1777263044 | -1.67° C | 100% | 1023.7 hPa | - | - | - | - |
| 1777261243 | -1.67° C | 100% | 1023.7 hPa | - | - | - | - |
| 1777258553 | -1.11° C | 100% | 1023.7 hPa | - | - | - | - |
| 1777256154 | -1.11° C | 100% | 1023.9 hPa | - | - | - | - |
| 1777254354 | -0.56° C | 100% | 1024 hPa | - | - | - | - |
| 1777246723 | 1.11° C | 100% | 1024.4 hPa | - | - | - | - |
| 1777244779 | 1.11° C | 100% | 1024.3 hPa | - | - | - | - |
| 1777234003 | 6.11° C | 100% | 1023.8 hPa | - | - | - | - |
| 1777231316 | 6.67° C | 100% | 1023.7 hPa | - | - | - | - |
| 1777223685 | 11.11° C | 100% | 1022.8 hPa | - | - | - | - |
| 1777217995 | 15° C | 100% | 1023 hPa | - | - | - | - |
| 1777213652 | 17.22° C | 100% | 1023 hPa | - | - | - | - |
| 1777207221 | 15° C | 100% | 1023.1 hPa | - | - | - | - |
| 1777206622 | 15.56° C | 100% | 1023.1 hPa | - | - | - | - |
| 1777201247 | 13.89° C | 100% | 1023.1 hPa | - | - | - | - |
| 1777199302 | 12.78° C | 100% | 1023 hPa | - | - | - | - |
| 1777195103 | 9.44° C | 100% | 1022.7 hPa | - | - | - | - |
| 1777192702 | 8.89° C | 100% | 1022.3 hPa | - | - | - | - |
| 1777191359 | 7.78° C | 100% | 1022.4 hPa | - | - | - | - |
| 1777190014 | 7.78° C | 100% | 1022.1 hPa | - | - | - | - |
| 1777189414 | 7.78° C | 100% | 1022.1 hPa | - | - | - | - |
| 1777188214 | 7.22° C | 100% | 1021.8 hPa | - | - | - | - |
| 1777187614 | 7.22° C | 100% | 1021.6 hPa | - | - | - | - |
| 1777187014 | 6.67° C | 100% | 1021.6 hPa | - | - | - | - |
| 1777179814 | 5° C | 100% | 1019.4 hPa | - | - | - | - |
* Rain since midnight (hover to see other rain measurements)
** Current wind speed in m/s (hover to see current wind gust speed)